Location: Poughquag
(41.6090°N, 73.6820°W)
Time: 03:31:27
(UTC-04:00)

Transit 2A Rocket - Pass Details

Date: 30 May 2020
Orbit: 584 x 919 km, 66.7° (Epoch: 06 July)

Event Time Altitude Azimuth Distance (km) Brightness Sun altitude
Rises 09:13:51 0° 321° (NW) 3,530 8.1 40.5°
Reaches altitude 10° 09:16:34 10° 312° (NW) 2,605 7.5 41.0°
Maximum altitude 09:21:56 33° 251° (WSW) 1,499 6.5 42.0°
Drops below altitude 10° 09:27:15 10° 189° (S) 2,581 7.8 43.0°
Sets 09:29:57 0° 180° (S) 3,492 8.5 43.5°
